Weather History for 78990 - October, 2012

Change the Weather History Date:

Tuesday, October 2, 2012

  Actual Average Record
Temperature  
Mean Temperature 86 °F -  
Max Temperature 89 °F 88 °F - ()
Min Temperature 82 °F 81 °F - ()
Cooling Degree Days 20    
Growing Degree Days 36 (Base 50)    
Moisture  
Dew Point 76 °F    
Average Humidity 73    
Maximum Humidity 84    
Minimum Humidity 60    
Precipitation  
Precipitation 0.00 in - - ()
Sea Level Pressure  
Sea Level Pressure 29.92 in    
Wind  
Wind Speed 13 mph ()    
Max Wind Speed 18 mph    
Max Gust Speed -    
Visibility 6.2 miles    
Events      
T = Trace of Precipitation, MM = Missing Value Source: Averaged Metar Reports

Daily Weather History Graph

Daily Weather History Graph

Search for Another Location

Airport or City:

Trip Planner

Search our weather history database for the weather conditions in past years. The results will help you decide how hot, cold, wet, or windy it might be!

Date:

Astronomy

Oct. 02, 2012 Rise Set
Actual Time 6:22 AM AST 6:22 PM AST
Civil Twilight 6:01 AM AST 6:43 PM AST
Nautical Twilight 5:36 AM AST 7:07 PM AST
Astronomical Twilight 5:11 AM AST 7:32 PM AST
Moon 8:08 PM AST 8:13 AM AST
Length of Visible Light 12h 42m
Length of Day
11h 59m
Waning Gibbous, 94% of the Moon is Illuminated
Oct 2
Waning Gibbous
Oct 8
Last Quarter
Oct 15
New
Oct 21
First Quarter
Oct 29
Full

Hourly Weather History & Observations

Time (AST) Temp. Heat Index Dew Point Humidity Pressure Visibility Wind Dir Wind Speed Gust Speed Precip Events Conditions
1:00 AM 82.4 °F 90.9 °F 77.0 °F 84% 29.89 in - North - - N/A   Unknown
3:00 AM 82.4 °F 89.5 °F 75.2 °F 79% 29.89 in - ESE 11.5 mph - N/A   Unknown
4:00 AM 82.4 °F 89.5 °F 75.2 °F 79% 29.86 in - North - - N/A   Unknown
5:00 AM 82.4 °F 89.5 °F 75.2 °F 79% 29.89 in - North - - N/A   Unknown
6:00 AM 82.4 °F 90.9 °F 77.0 °F 84% 29.89 in - North - - N/A   Unknown
7:00 AM 84.2 °F 94.1 °F 77.0 °F 79% 29.92 in - North - - N/A   Unknown
8:00 AM 87 °F - 77 °F 66% 29.95 in 31 mi East 16.1 mph - -   Partly Cloudy
8:00 AM 86.0 °F 96.9 °F 77.0 °F 74% 29.95 in 6.2 mi East 16.1 mph - N/A   Partly Cloudy
9:00 AM 87.8 °F 99.7 °F 77.0 °F 70% 29.98 in 6.2 mi East 17.3 mph - N/A   Scattered Clouds
10:00 AM 87.8 °F 99.7 °F 77.0 °F 70% 29.98 in 6.2 mi East 17.3 mph - N/A   Scattered Clouds
11:00 AM 87.8 °F 99.7 °F 77.0 °F 70% 29.98 in 6.2 mi ESE 18.4 mph - N/A   Scattered Clouds
12:00 PM 87.8 °F 99.7 °F 77.0 °F 70% 29.95 in 6.2 mi East 18.4 mph - N/A   Scattered Clouds
1:00 PM 87.8 °F 99.7 °F 77.0 °F 70% 29.92 in 6.2 mi ESE 15.0 mph - N/A   Scattered Clouds
2:00 PM 89 °F - 77 °F 60% 29.92 in 31 mi SE 16.1 mph - -   Partly Cloudy
2:00 PM 87.8 °F 99.7 °F 77.0 °F 70% 29.92 in 6.2 mi ESE 11.5 mph - N/A   Scattered Clouds
3:00 PM 87.8 °F 99.7 °F 77.0 °F 70% 29.89 in 6.2 mi SE 15.0 mph - N/A   Mostly Cloudy
4:00 PM 89.6 °F 102.2 °F 77.0 °F 66% 29.86 in 6.2 mi ESE 13.8 mph - N/A   Mostly Cloudy
5:00 PM 87 °F - 76 °F 64%  in 6 mi ESE 11.5 mph - -   Clear
5:00 PM 87.8 °F 99.7 °F 77.0 °F 70% 29.86 in - North - - N/A   Unknown
6:00 PM 86.0 °F 96.9 °F 77.0 °F 74% 29.86 in 6.2 mi East 15.0 mph - N/A   Scattered Clouds
7:00 PM 84.2 °F 94.1 °F 77.0 °F 79% 29.89 in - North - - N/A   Unknown
8:00 PM 84 °F - 76 °F 72%  in 31 mi ESE 11.5 mph - -   Clear
8:00 PM 84.2 °F 94.1 °F 77.0 °F 79% 29.92 in - North - - N/A   Unknown
10:00 PM 82.4 °F 89.5 °F 75.2 °F 79% 29.95 in - ESE 11.5 mph - N/A   Unknown
11:00 PM 83 °F - 74 °F 67%  in - ESE 11.5 mph - -   Clear
11:00 PM 82.4 °F 88.2 °F 73.4 °F 74% 29.95 in - ESE 11.5 mph - N/A   Unknown